• In Uzbekistan
  • List of Countries
  • For 7 days
  • Water Temperature
  • Satellite Maps
  • Weather Map
  • Weather Widgets
  • user-avatar
    Login

    Hourly Weather Campos do Jordao

    Today, 11 December, Monday

    Time Temperature Precipitation Wind Pressure Humidity
    00:00 +14°C° 0 mm 1 mps 623 mmHg 87%
    01:00 +13°C° 0 mm 1 mps 623 mmHg 87%
    02:00 +13°C° 0 mm 1 mps 622 mmHg 88%
    03:00 +13°C° 0 mm 1 mps 622 mmHg 88%
    04:00 +13°C° 0 mm 1 mps 622 mmHg 87%
    05:00 +13°C° 0 mm 1 mps 623 mmHg 86%
    06:00 +13°C° 0 mm 1 mps 623 mmHg 85%
    07:00 +15°C° 0 mm 0 mps 624 mmHg 71%
    08:00 +18°C° 0 mm 0 mps 625 mmHg 58%
    09:00 +22°C° 0 mm 0 mps 627 mmHg 44%
    10:00 +25°C° 0 mm 1 mps 627 mmHg 39%
    11:00 +26°C° 0 mm 1 mps 627 mmHg 34%
    12:00 +27°C° 0 mm 2 mps 627 mmHg 30%
    13:00 +26°C° 0 mm 2 mps 627 mmHg 31%
    14:00 +26°C° 0 mm 2 mps 627 mmHg 33%
    15:00 +26°C° 0 mm 3 mps 627 mmHg 34%
    16:00 +24°C° 0 mm 3 mps 627 mmHg 44%
    17:00 +20°C° 0 mm 3 mps 626 mmHg 54%
    18:00 +18°C° 0 mm 3 mps 626 mmHg 64%
    19:00 +16°C° 0 mm 3 mps 626 mmHg 73%
    20:00 +15°C° 0 mm 2 mps 626 mmHg 81%
    21:00 +13°C° 0 mm 2 mps 626 mmHg 89%
    22:00 +13°C° 0 mm 2 mps 626 mmHg 91%
    23:00 +12°C° 0 mm 1 mps 626 mmHg 93%

    Tomorrow, 12 December, Tuesday

    Time Temperature Precipitation Wind Pressure Humidity
    00:00 +12°C° 0 mm 1 mps 626 mmHg 95%
    01:00 +12°C° 0 mm 1 mps 626 mmHg 94%
    02:00 +12°C° 0 mm 1 mps 626 mmHg 94%
    03:00 +12°C° 0 mm 1 mps 626 mmHg 93%
    04:00 +12°C° 0 mm 1 mps 626 mmHg 92%
    05:00 +12°C° 0 mm 1 mps 627 mmHg 91%
    06:00 +13°C° 0 mm 1 mps 628 mmHg 90%
    07:00 +14°C° 0 mm 2 mps 628 mmHg 84%
    08:00 +15°C° 0 mm 2 mps 629 mmHg 79%
    09:00 +17°C° 0 mm 2 mps 630 mmHg 73%
    10:00 +18°C° 0 mm 3 mps 631 mmHg 70%
    11:00 +19°C° 0 mm 3 mps 631 mmHg 66%
    12:00 +19°C° 0 mm 3 mps 631 mmHg 63%
    13:00 +19°C° 0.1 mm 3 mps 631 mmHg 67%
    14:00 +18°C° 0.1 mm 3 mps 630 mmHg 70%
    15:00 +17°C° 0.1 mm 3 mps 630 mmHg 74%
    16:00 +16°C° 0 mm 2 mps 629 mmHg 76%
    17:00 +16°C° 0 mm 2 mps 629 mmHg 78%
    18:00 +15°C° 0 mm 2 mps 629 mmHg 80%
    19:00 +14°C° 0 mm 2 mps 629 mmHg 84%
    20:00 +13°C° 0 mm 2 mps 629 mmHg 89%
    21:00 +12°C° 0 mm 1 mps 629 mmHg 93%
    22:00 +11°C° 0 mm 1 mps 629 mmHg 93%
    23:00 +11°C° 0 mm 1 mps 629 mmHg 94%

    Day after tomorrow, 13 December, Wednesday

    Time Temperature Precipitation Wind Pressure Humidity
    00:00 +11°C° 0 mm 1 mps 629 mmHg 94%
    01:00 +10°C° 0 mm 1 mps 629 mmHg 95%
    02:00 +10°C° 0 mm 1 mps 628 mmHg 95%
    03:00 +10°C° 0 mm 1 mps 628 mmHg 96%
    04:00 +10°C° 0 mm 1 mps 628 mmHg 94%
    05:00 +11°C° 0 mm 1 mps 629 mmHg 92%
    06:00 +11°C° 0 mm 1 mps 629 mmHg 91%
    07:00 +14°C° 0 mm 1 mps 630 mmHg 80%
    08:00 +16°C° 0 mm 1 mps 632 mmHg 69%
    09:00 +20°C° 0 mm 1 mps 633 mmHg 59%
    10:00 +21°C° 0 mm 1 mps 633 mmHg 55%
    11:00 +22°C° 0 mm 1 mps 633 mmHg 52%
    12:00 +24°C° 0 mm 1 mps 634 mmHg 48%
    13:00 +23°C° 0 mm 1 mps 633 mmHg 50%
    14:00 +23°C° 0 mm 2 mps 633 mmHg 52%
    15:00 +23°C° 0 mm 2 mps 632 mmHg 54%
    16:00 +20°C° 0 mm 2 mps 632 mmHg 60%
    17:00 +19°C° 0 mm 2 mps 631 mmHg 66%
    18:00 +18°C° 0 mm 2 mps 631 mmHg 72%
    19:00 +16°C° 0 mm 2 mps 630 mmHg 80%
    20:00 +14°C° 0 mm 1 mps 630 mmHg 87%
    21:00 +12°C° 0 mm 1 mps 630 mmHg 94%
    22:00 +12°C° 0 mm 1 mps 630 mmHg 94%
    23:00 +11°C° 0 mm 1 mps 630 mmHg 95%

    14 December, Thursday

    Time Temperature Precipitation Wind Pressure Humidity
    00:00 +11°C° 0 mm 1 mps 630 mmHg 96%
    01:00 +11°C° 0 mm 1 mps 629 mmHg 96%
    02:00 +11°C° 0 mm 1 mps 629 mmHg 96%
    03:00 +10°C° 0 mm 1 mps 628 mmHg 96%
    04:00 +11°C° 0 mm 1 mps 629 mmHg 95%
    05:00 +11°C° 0 mm 1 mps 629 mmHg 94%
    06:00 +12°C° 0 mm 1 mps 629 mmHg 93%
    07:00 +15°C° 0 mm 1 mps 631 mmHg 80%
    08:00 +17°C° 0 mm 0 mps 632 mmHg 68%
    09:00 +20°C° 0 mm 0 mps 633 mmHg 55%
    10:00 +24°C° 0 mm 1 mps 633 mmHg 49%
    11:00 +25°C° 0 mm 1 mps 633 mmHg 43%
    12:00 +27°C° 0 mm 1 mps 633 mmHg 37%
    13:00 +27°C° 0 mm 1 mps 633 mmHg 37%
    14:00 +27°C° 0 mm 1 mps 632 mmHg 37%
    15:00 +26°C° 0 mm 2 mps 632 mmHg 37%
    16:00 +24°C° 0 mm 1 mps 631 mmHg 46%
    17:00 +23°C° 0 mm 1 mps 630 mmHg 55%
    18:00 +21°C° 0 mm 1 mps 630 mmHg 65%
    19:00 +19°C° 0 mm 1 mps 630 mmHg 73%
    20:00 +16°C° 0 mm 1 mps 629 mmHg 81%
    21:00 +14°C° 0 mm 1 mps 629 mmHg 89%
    22:00 +14°C° 0 mm 1 mps 629 mmHg 90%
    23:00 +13°C° 0 mm 1 mps 628 mmHg 90%

    15 December, Friday

    Time Temperature Precipitation Wind Pressure Humidity
    00:00 +13°C° 0 mm 1 mps 628 mmHg 91%
    01:00 +13°C° 0 mm 1 mps 628 mmHg 91%
    02:00 +13°C° 0 mm 1 mps 627 mmHg 92%
    03:00 +13°C° 0 mm 1 mps 627 mmHg 92%
    04:00 +13°C° 0 mm 1 mps 627 mmHg 91%
    05:00 +13°C° 0 mm 1 mps 628 mmHg 91%
    06:00 +14°C° 0 mm 1 mps 628 mmHg 90%
    07:00 +16°C° 0 mm 1 mps 629 mmHg 82%
    08:00 +19°C° 0 mm 1 mps 630 mmHg 73%
    09:00 +21°C° 0 mm 1 mps 631 mmHg 64%
    10:00 +23°C° 0 mm 1 mps 632 mmHg 58%
    11:00 +24°C° 0 mm 2 mps 632 mmHg 51%
    12:00 +26°C° 0 mm 2 mps 632 mmHg 45%
    13:00 +26°C° 0 mm 2 mps 632 mmHg 43%
    14:00 +26°C° 0 mm 2 mps 631 mmHg 41%
    15:00 +27°C° 0 mm 2 mps 631 mmHg 39%
    16:00 +25°C° 0 mm 1 mps 630 mmHg 46%
    17:00 +23°C° 0 mm 1 mps 630 mmHg 53%
    18:00 +22°C° 0 mm 1 mps 629 mmHg 60%
    19:00 +20°C° 0 mm 1 mps 629 mmHg 68%
    20:00 +18°C° 0 mm 1 mps 629 mmHg 77%
    21:00 +14°C° 0 mm 1 mps 628 mmHg 86%
    22:00 +14°C° 0 mm 1 mps 628 mmHg 88%
    23:00 +13°C° 0 mm 1 mps 628 mmHg 90%

    16 December, Saturday

    Time Temperature Precipitation Wind Pressure Humidity
    00:00 +13°C° 0 mm 1 mps 627 mmHg 92%
    01:00 +13°C° 0 mm 1 mps 627 mmHg 92%
    02:00 +13°C° 0 mm 1 mps 627 mmHg 92%
    03:00 +12°C° 0 mm 1 mps 627 mmHg 92%
    04:00 +13°C° 0 mm 1 mps 627 mmHg 90%
    05:00 +13°C° 0 mm 1 mps 628 mmHg 89%
    06:00 +12°C° 0 mm 0 mps 628 mmHg 87%
    07:00 +16°C° 0 mm 1 mps 629 mmHg 77%
    08:00 +20°C° 0 mm 1 mps 631 mmHg 67%
    09:00 +24°C° 0 mm 1 mps 632 mmHg 56%
    10:00 +25°C° 0.2 mm 1 mps 632 mmHg 52%
    11:00 +26°C° 0.2 mm 1 mps 632 mmHg 48%
    12:00 +27°C° 0.2 mm 1 mps 633 mmHg 44%
    13:00 +27°C° 0.1 mm 1 mps 632 mmHg 43%
    14:00 +27°C° 0.1 mm 1 mps 632 mmHg 42%
    15:00 +27°C° 0.1 mm 1 mps 631 mmHg 41%
    16:00 +24°C° 0.6 mm 1 mps 631 mmHg 53%
    17:00 +21°C° 0.6 mm 2 mps 630 mmHg 66%
    18:00 +18°C° 0.6 mm 2 mps 629 mmHg 78%
    19:00 +17°C° 0.5 mm 2 mps 629 mmHg 82%
    20:00 +16°C° 0.5 mm 1 mps 629 mmHg 86%
    21:00 +15°C° 0.5 mm 1 mps 629 mmHg 91%
    22:00 +15°C° 0 mm 1 mps 629 mmHg 91%
    23:00 +14°C° 0 mm 1 mps 628 mmHg 91%
    Show more